SHIJIAN-6 02B (SJ-6 02B)

Last updated on Thu Jul 03 2025 00:03:31 GMT+0000 (Coordinated Universal Time)

1 29506U 06046B 25183.60625839 .00000948 00000+0 81241-4 0 9996 2 29506 97.7016 210.9094 0006337 145.7404 214.4229 14.99901222 18319
UTC large
Height (km)
Speed (km/s)
/
Latitude / Longitude
Inclination (degrees)
Orbital Period (minutes)
Azimuth
Elevation
Range (km)
Doppler Factor

Next 0 passes for location: London (51.5072 / 0.1276)

Sorry there are no passes over London.